Savannah Hunter, GA

7:06 AM EST on January 19, 2018 (GMT -0500)
Hunter Army Air Field

Weather History for KSVN - September, 2012

Change the Weather History Date:

Sunday, September 30, 2012

  Actual Average Record
Temperature  
Mean Temperature 76 °F -  
Max Temperature 81 °F 80 °F 89 °F (1997)
Min Temperature 70 °F 63 °F 53 °F (2001)
Cooling Degree Days 10    
Growing Degree Days 26 (Base 50)    
Moisture  
Dew Point 71 °F    
Average Humidity 85    
Maximum Humidity 100    
Minimum Humidity 70    
Precipitation  
Precipitation 0.15 in - - ()
Sea Level Pressure  
Sea Level Pressure 29.84 in    
Wind  
Wind Speed 2 mph (SE)    
Max Wind Speed 8 mph    
Max Gust Speed -    
Visibility 10 miles    
Events Rain    
Averages and records for this station are not official NWS values.
T = Trace of Precipitation, MM = Missing Value Source: NWS Daily Summary

Daily Weather History Graph

Daily Weather History Graph

Search for Another Location

Airport or City:

Trip Planner

Search our weather history database for the weather conditions in past years. The results will help you decide how hot, cold, wet, or windy it might be!

Date:

Astronomy

Sep. 30, 2012 Rise Set
Actual Time 7:18 AM EDT 7:10 PM EDT
Civil Twilight 6:53 AM EDT 7:34 PM EDT
Nautical Twilight 6:25 AM EDT 8:02 PM EDT
Astronomical Twilight 5:56 AM EDT 8:31 PM EDT
Moon 7:19 PM EDT (9/30) 7:42 AM EDT (9/30)
Length of Visible Light 12h 40m
Length of Day
11h 51m
Full, 100% of the Moon is Illuminated
Sep 30
Full
Oct 8
Last Quarter
Oct 15
New
Oct 21
First Quarter
Oct 29
Full

Hourly Weather History & Observations

Time (EDT) Temp. Heat Index Dew Point Humidity Pressure Visibility Wind Dir Wind Speed Gust Speed Precip Events Conditions
12:55 AM 72.5 °F - 71.1 °F 95% 29.88 in 10.0 mi Calm Calm - N/A   Scattered Clouds
1:55 AM 72.0 °F - 70.3 °F 95% 29.88 in 10.0 mi Calm Calm - N/A   Scattered Clouds
2:55 AM 72.0 °F - 70.5 °F 95% 29.88 in 10.0 mi Calm Calm - N/A   Scattered Clouds
3:08 AM 71.6 °F - 69.8 °F 94% 29.87 in 10.0 mi Calm Calm - N/A Rain Light Rain
3:18 AM 71.6 °F - 69.8 °F 94% 29.87 in 10.0 mi Calm Calm - N/A   Clear
3:55 AM 71.4 °F - 70.0 °F 95% 29.86 in 10.0 mi West 3.5 mph - 0.00 in   Scattered Clouds
4:55 AM 70.7 °F - 69.6 °F 96% 29.86 in 10.0 mi Calm Calm - N/A   Mostly Cloudy
5:55 AM 70.7 °F - 69.8 °F 97% 29.86 in 10.0 mi Calm Calm - N/A   Mostly Cloudy
6:55 AM 70.9 °F - 70.0 °F 97% 29.86 in 10.0 mi Calm Calm - N/A   Scattered Clouds
7:55 AM 70.9 °F - 70.0 °F 97% 29.87 in 10.0 mi South 3.5 mph - N/A   Overcast
8:55 AM 72.5 °F - 70.9 °F 95% 29.88 in 10.0 mi Calm Calm - N/A   Scattered Clouds
9:55 AM 74.1 °F - 70.9 °F 90% 29.89 in 10.0 mi Calm Calm - N/A   Scattered Clouds
10:55 AM 76.5 °F - 68.7 °F 77% 29.88 in 10.0 mi Calm Calm - N/A   Scattered Clouds
11:55 AM 78.4 °F - 69.4 °F 74% 29.88 in 10.0 mi Calm Calm - N/A   Partly Cloudy
12:43 PM 80.6 °F 83.9 °F 69.8 °F 70% 29.87 in 10.0 mi Variable 4.6 mph - N/A   Mostly Cloudy
12:55 PM 79.7 °F - 69.1 °F 70% 29.87 in 10.0 mi SSE 3.5 mph - N/A   Mostly Cloudy
1:22 PM 80.6 °F 83.9 °F 69.8 °F 70% 29.86 in 10.0 mi Variable 3.5 mph - N/A   Mostly Cloudy
1:55 PM 81.3 °F 85.2 °F 70.7 °F 70% 29.85 in 10.0 mi SSE 4.6 mph - N/A   Scattered Clouds
2:00 PM 80.6 °F 83.9 °F 69.8 °F 70% 29.85 in 10.0 mi SE 3.5 mph - N/A   Mostly Cloudy
2:25 PM 80.6 °F 84.6 °F 71.6 °F 74% 29.84 in 10.0 mi SSE 3.5 mph - N/A   Mostly Cloudy
2:55 PM 79.9 °F - 70.7 °F 73% 29.83 in 10.0 mi Calm Calm - N/A   Scattered Clouds
3:06 PM 80.6 °F 84.6 °F 71.6 °F 74% 29.83 in 10.0 mi ESE 5.8 mph - N/A   Mostly Cloudy
3:12 PM 80.6 °F 84.6 °F 71.6 °F 74% 29.82 in 10.0 mi ESE 6.9 mph - N/A   Scattered Clouds
3:15 PM 80.6 °F 83.9 °F 69.8 °F 70% 29.82 in 10.0 mi SE 4.6 mph - N/A   Mostly Cloudy
3:17 PM 80.6 °F 83.9 °F 69.8 °F 70% 29.82 in 10.0 mi SE 3.5 mph - N/A   Scattered Clouds
3:55 PM 80.2 °F 83.7 °F 70.7 °F 73% 29.81 in 10.0 mi ESE 8.1 mph - N/A   Scattered Clouds
4:55 PM 79.5 °F - 72.5 °F 79% 29.81 in 10.0 mi East 8.1 mph - N/A   Mostly Cloudy
5:04 PM 78.8 °F - 73.4 °F 83% 29.80 in 10.0 mi ESE 8.1 mph - N/A   Mostly Cloudy
5:39 PM 78.8 °F - 71.6 °F 78% 29.81 in 10.0 mi SE 8.1 mph - N/A   Mostly Cloudy
5:51 PM 78.8 °F - 69.8 °F 74% 29.81 in 10.0 mi SE 8.1 mph - N/A   Mostly Cloudy
5:55 PM 78.3 °F - 70.7 °F 77% 29.81 in 10.0 mi SE 6.9 mph - N/A   Overcast
5:58 PM 78.8 °F - 71.6 °F 78% 29.81 in 10.0 mi SE 6.9 mph - N/A Rain Light Rain
6:02 PM 77.0 °F - 71.6 °F 83% 29.81 in 9.0 mi SE 8.1 mph - N/A Rain Light Rain
6:55 PM 72.9 °F - 70.2 °F 91% 29.83 in 8.0 mi Calm Calm - 0.12 in Rain Light Rain
7:27 PM 73.4 °F - 71.6 °F 94% 29.82 in 10.0 mi East 3.5 mph - N/A   Mostly Cloudy
7:53 PM 71.6 °F - 71.6 °F 100% 29.82 in 10.0 mi East 3.5 mph - N/A   Light Drizzle
7:55 PM 72.5 °F - 71.1 °F 95% 29.82 in 10.0 mi Calm Calm - 0.03 in   Light Drizzle
8:02 PM 73.4 °F - 71.6 °F 94% 29.81 in 10.0 mi East 5.8 mph - N/A   Overcast
8:55 PM 72.7 °F - 71.2 °F 95% 29.82 in 10.0 mi Calm Calm - 0.00 in   Mostly Cloudy
9:55 PM 72.9 °F - 72.0 °F 97% 29.83 in 10.0 mi East 3.5 mph - N/A   Scattered Clouds
10:55 PM 73.0 °F - 71.8 °F 96% 29.83 in 10.0 mi Calm Calm - N/A   Scattered Clouds
11:55 PM 73.6 °F - 72.7 °F 97% 29.82 in 10.0 mi Calm Calm - N/A   Overcast